Date String (YYYY-MM-DD hh:mm:ss) UTC,Instrument flags,Ambient pressure (hPa),Sample flow (lpm),Bypass flow (lpm),Sample temperature (°C),Ambient temperature (°C),ASC tube jacket temperature (°C),LED temperature (°C),Box temperature (°C),Sample RH (%),Span deviation,Mass concentration (μg/m³),Mass concentration (μg/m³),Mass concentration (μg/m³)
DateTimeUTC,F1_M11,P_M11,Q1_M11,Q2_M11,T1_M11,T2_M11,T3_M11,T4_M11,T5_M11,U1_M11,ZSPAN_M11,X0_M11,X2_M11,X1_M11
2022-03-15 12:00:00,,0829.2,4.99,0.00,22.4,21.7,00.0,31.4,24.1,09.5,0000.0,0009.88,0003.12,0002.02
2022-03-15 12:01:00,,0829.2,5.01,0.00,22.4,21.7,00.0,31.4,24.1,09.5,0000.0,0009.62,0003.08,0001.98
2022-03-15 12:02:00,,0829.2,4.99,0.00,22.4,21.7,00.0,31.4,24.1,09.4,0000.0,0009.66,0003.07,0001.96
2022-03-15 12:03:00,,0829.2,4.99,0.00,22.4,21.7,00.0,31.4,24.1,09.4,0000.0,0009.41,0003.10,0001.95
2022-03-15 12:04:00,,0829.2,5.00,0.00,22.4,21.7,00.0,31.4,24.1,09.4,0000.0,0008.92,0003.04,0001.94
2022-03-15 12:05:00,,0829.2,5.00,0.00,22.4,21.7,00.0,31.4,24.2,09.3,0000.0,0008.45,0003.04,0001.95
2022-03-15 12:06:00,,0829.2,5.01,0.00,22.4,21.7,00.0,31.4,24.2,09.4,0000.0,0008.09,0002.95,0001.96
2022-03-15 12:07:00,,0829.2,5.01,0.00,22.4,21.7,00.0,31.4,24.2,09.4,0000.0,0007.66,0002.98,0001.97
2022-03-15 12:08:00,,0829.2,4.98,0.00,22.4,21.7,00.0,31.4,24.2,09.4,0000.0,0007.24,0002.94,0001.97
2022-03-15 12:09:00,,0829.2,5.01,0.00,22.4,21.7,00.0,31.4,24.2,09.3,0000.0,0007.49,0002.92,0001.98
2022-03-15 12:10:00,,0829.2,5.01,0.00,22.4,21.7,00.0,31.4,24.2,09.3,0000.0,0007.00,0002.89,0001.98
2022-03-15 12:11:00,,0829.2,5.00,0.00,22.4,21.7,00.0,31.4,24.2,09.3,0000.0,0006.74,0002.82,0001.97
2022-03-15 12:12:00,,0829.2,5.00,0.00,22.4,21.7,00.0,31.4,24.2,09.2,0000.0,0006.86,0002.83,0001.98
2022-03-15 12:13:00,,0829.2,4.99,0.00,22.4,21.7,00.0,31.4,24.2,09.2,0000.0,0006.79,0002.82,0001.97
2022-03-15 12:14:00,,0829.2,5.01,0.00,22.4,21.7,00.0,31.4,24.2,09.3,0000.0,0006.56,0002.77,0001.94
2022-03-15 12:15:00,,0829.2,5.01,0.00,22.5,21.7,00.0,31.4,24.2,09.3,0000.0,0006.49,0002.80,0001.94
2022-03-15 12:16:00,,0829.2,5.00,0.00,22.4,21.7,00.0,31.4,24.2,09.3,0000.0,0007.31,0002.83,0001.94
2022-03-15 12:17:00,,0829.2,4.98,0.00,22.5,21.7,00.0,31.4,24.2,09.2,0000.0,0007.64,0002.91,0001.94
2022-03-15 12:18:00,,0829.2,5.00,0.00,22.4,21.7,00.0,31.4,24.2,09.2,0000.0,0007.71,0002.92,0001.94
2022-03-15 12:19:00,,0829.3,5.01,0.00,22.5,21.7,00.0,31.4,24.2,09.2,0000.0,0007.69,0002.91,0001.94
2022-03-15 12:20:00,,0829.2,5.00,0.00,22.5,21.7,00.0,31.4,24.2,09.2,0000.0,0007.26,0002.86,0001.92
2022-03-15 12:21:00,,0829.2,4.99,0.00,22.5,21.7,00.0,31.4,24.2,09.3,0000.0,0006.94,0002.85,0001.92
2022-03-15 12:22:00,,0829.2,5.00,0.00,22.5,21.7,00.0,31.4,24.2,09.3,0000.0,0007.04,0002.87,0001.92
2022-03-15 12:23:00,,0829.2,5.00,0.00,22.5,21.7,00.0,31.4,24.2,09.3,0000.0,0006.74,0002.82,0001.91
2022-03-15 12:24:00,,0829.2,5.00,0.00,22.5,21.7,00.0,31.4,24.3,09.2,0000.0,0006.61,0002.82,0001.91
2022-03-15 12:25:00,,0829.1,5.01,0.00,22.5,21.7,00.0,31.4,24.3,09.2,0000.0,0006.31,0002.80,0001.91
2022-03-15 12:26:00,,0829.2,5.00,0.00,22.5,21.7,00.0,31.4,24.3,09.2,0000.0,0006.25,0002.85,0001.92
2022-03-15 12:27:00,,0829.2,4.98,0.00,22.5,21.7,00.0,31.4,24.3,09.1,0000.0,0006.00,0002.87,0001.92
2022-03-15 12:28:00,,0829.2,5.01,0.00,22.5,21.8,00.0,31.4,24.3,09.1,0000.0,0005.78,0002.89,0001.91
2022-03-15 12:29:00,,0829.1,5.00,0.00,22.5,21.8,00.0,31.4,24.3,09.1,0000.0,0005.75,0002.86,0001.91
2022-03-15 12:30:00,,0829.1,5.00,0.00,22.5,21.8,00.0,31.4,24.2,09.3,0000.0,0005.98,0002.89,0001.90
2022-03-15 12:31:00,,0829.1,5.00,0.00,22.5,21.7,00.0,31.4,24.2,09.2,0000.0,0006.21,0002.94,0001.91
2022-03-15 12:32:00,,0829.1,5.01,0.00,22.5,21.7,00.0,31.4,24.2,09.2,0000.0,0006.82,0002.98,0001.91
2022-03-15 12:33:00,,0829.1,5.01,0.00,22.5,21.7,00.0,31.4,24.2,09.3,0000.0,0007.72,0003.05,0001.95
2022-03-15 12:34:00,,0829.1,5.00,0.00,22.5,21.7,00.0,31.4,24.3,09.4,0000.0,0009.05,0003.09,0001.98
2022-03-15 12:35:00,,0829.1,4.99,0.00,22.5,21.7,00.0,31.4,24.3,09.4,0000.0,0009.06,0003.09,0002.02
2022-03-15 12:36:00,,0829.1,5.00,0.00,22.5,21.7,00.0,31.4,24.3,09.3,0000.0,0009.28,0003.15,0002.07
2022-03-15 12:37:00,,0829.2,5.00,0.00,22.5,21.7,00.0,31.4,24.2,09.3,0000.0,0009.21,0003.13,0002.07
2022-03-15 12:38:00,,0829.2,5.00,0.00,22.4,21.6,00.0,31.4,24.2,09.4,0000.0,0008.74,0003.08,0002.07
2022-03-15 12:39:00,,0829.1,5.00,0.00,22.4,21.6,00.0,31.4,24.1,09.5,0000.0,0008.61,0003.04,0002.07
2022-03-15 12:40:00,,0829.1,5.00,0.00,22.4,21.6,00.0,31.4,24.1,09.5,0000.0,0008.46,0003.02,0002.08
2022-03-15 12:41:00,,0829.1,4.99,0.00,22.4,21.6,00.0,31.4,24.2,09.5,0000.0,0008.39,0003.02,0002.08
2022-03-15 12:42:00,,0829.1,4.99,0.00,22.4,21.6,00.0,31.4,24.2,09.5,0000.0,0009.09,0003.04,0002.09
2022-03-15 12:43:00,,0829.1,5.00,0.00,22.4,21.6,00.0,31.4,24.2,09.5,0000.0,0009.07,0003.04,0002.10
2022-03-15 12:44:00,,0829.1,5.01,0.00,22.4,21.6,00.0,31.4,24.2,09.4,0000.0,0008.32,0002.98,0002.08
2022-03-15 12:45:00,,0829.0,5.00,0.00,22.4,21.6,00.0,31.4,24.2,09.5,0000.0,0006.98,0002.97,0002.07
2022-03-15 12:46:00,,0829.0,5.00,0.00,22.4,21.7,00.0,31.4,24.2,09.5,0000.0,0007.11,0002.98,0002.05
2022-03-15 12:47:00,,0829.0,4.99,0.00,22.4,21.7,00.0,31.4,24.2,09.5,0000.0,0006.91,0002.96,0002.02
2022-03-15 12:48:00,,0829.0,5.00,0.00,22.4,21.7,00.0,31.4,24.2,09.5,0000.0,0006.86,0002.98,0002.02
2022-03-15 12:49:00,,0829.0,4.99,0.00,22.4,21.7,00.0,31.4,24.2,09.5,0000.0,0007.70,0003.06,0002.04
2022-03-15 12:50:00,,0829.0,4.99,0.00,22.4,21.7,00.0,31.4,24.2,09.5,0000.0,0007.81,0003.06,0002.05
2022-03-15 12:51:00,,0829.1,4.99,0.00,22.4,21.7,00.0,31.4,24.2,09.6,0000.0,0008.30,0003.08,0002.06
2022-03-15 12:52:00,,0829.1,5.01,0.00,22.4,21.6,00.0,31.4,24.2,09.6,0000.0,0008.70,0003.14,0002.08
2022-03-15 12:53:00,,0829.1,5.01,0.00,22.4,21.7,00.0,31.4,24.2,09.7,0000.0,0008.32,0003.10,0002.09
2022-03-15 12:54:00,,0829.1,5.00,0.00,22.4,21.7,00.0,31.4,24.2,09.7,0000.0,0008.11,0003.11,0002.10
2022-03-15 12:55:00,,0829.1,5.00,0.00,22.4,21.7,00.0,31.4,24.2,09.7,0000.0,0008.11,0003.13,0002.12
2022-03-15 12:56:00,,0829.3,5.01,0.00,22.4,21.7,00.0,31.4,24.3,09.8,0000.0,0008.07,0003.12,0002.13
2022-03-15 12:57:00,,0829.2,5.01,0.00,22.4,21.7,00.0,31.4,24.3,09.8,0000.0,0008.04,0003.11,0002.14
2022-03-15 12:58:00,,0829.2,4.98,0.00,22.4,21.7,00.0,31.4,24.3,09.9,0000.0,0008.10,0003.10,0002.15
2022-03-15 12:59:00,,0829.1,5.01,0.00,22.5,21.7,00.0,31.4,24.3,09.8,0000.0,0008.44,0003.07,0002.19
